Tracking 19146 objects as of 23-Apr-2018
HD Live streaming from Space Station
objects crossing your sky now

FLOCK 2K 44

Track FLOCK 2K 44 now!
10-day predictions
FLOCK 2K 44 is classified as:


NORAD ID: 42873
Int'l Code: 2017-042BA
Perigee: 456.8 km
Apogee: 470.7 km
Inclination: 97.0 °
Period: 93.7 minutes
Semi major axis: 6834 km
RCS: Unknown
Launch date: July 14, 2017
Source: United States (US)
Launch site: TYURATAM MISSILE AND SPACE COMPLEX (TTMTR)
aabbcc
Your satellite tracking list
Your tracking list is empty




NASA's NSSDC Master Catalog

Two Line Element Set (TLE):
1 42873U 17042BA  18112.66229581 +.00003485 +00000-0 +99993-4 0  9993
2 42873 096.9849 012.1007 0010196 307.2807 052.7508 15.36452517043111
Source of the keplerian elements: AFSPC